Philadelphia, PA

12:02 PM EST on February 27, 2017 (GMT -0500)
Northeast Philadelphia

Weather History for KPNE - September, 2012

Change the Weather History Date:

Saturday, September 8, 2012

  Actual Average Record
Temperature  
Mean Temperature 75 °F -  
Max Temperature 87 °F 78 °F 96 °F (2016)
Min Temperature 64 °F 60 °F 52 °F (2000)
Cooling Degree Days 10    
Growing Degree Days 25 (Base 50)    
Moisture  
Dew Point 70 °F    
Average Humidity 85    
Maximum Humidity 94    
Minimum Humidity 53    
Precipitation  
Precipitation 0.19 in - - ()
Sea Level Pressure  
Sea Level Pressure 29.77 in    
Wind  
Wind Speed 6 mph (SSW)    
Max Wind Speed 16 mph    
Max Gust Speed 26 mph    
Visibility 10 miles    
Events Rain    
Averages and records for this station are not official NWS values.
T = Trace of Precipitation, MM = Missing Value Source: NWS Daily Summary

Daily Weather History Graph

Daily Weather History Graph

Search for Another Location

Airport or City:

Trip Planner

Search our weather history database for the weather conditions in past years. The results will help you decide how hot, cold, wet, or windy it might be!

Date:

Astronomy

Sep. 08, 2012 Rise Set
Actual Time 6:34 AM EDT 7:19 PM EDT
Civil Twilight 6:07 AM EDT 7:46 PM EDT
Nautical Twilight 5:34 AM EDT 8:19 PM EDT
Astronomical Twilight 5:01 AM EDT 8:52 PM EDT
Moon No Moon Rise 2:14 PM EDT (9/8)
Length of Visible Light 13h 39m
Length of Day
12h 44m
Waning Gibbous, 49% of the Moon is Illuminated
Sep 8
Waning Gibbous
Sep 15
New
Sep 22
First Quarter
Sep 29
Full
Oct 8
Last Quarter

Hourly Weather History & Observations

Time (EDT) Temp. Heat Index Dew Point Humidity Pressure Visibility Wind Dir Wind Speed Gust Speed Precip Events Conditions
12:54 AM 73.9 °F - 70.0 °F 87% 29.88 in 10.0 mi SSW 4.6 mph - N/A   Clear
1:47 AM 73.4 °F - 71.6 °F 94% 29.88 in 10.0 mi Variable 5.8 mph - N/A   Scattered Clouds
1:54 AM 73.0 °F - 71.1 °F 93% 29.87 in 10.0 mi Variable 6.9 mph - N/A   Scattered Clouds
2:08 AM 73.4 °F - 71.6 °F 94% 29.87 in 10.0 mi South 4.6 mph - N/A   Mostly Cloudy
2:54 AM 73.0 °F - 71.1 °F 93% 29.85 in 10.0 mi Variable 4.6 mph - N/A   Overcast
3:01 AM 73.4 °F - 69.8 °F 88% 29.85 in 10.0 mi Variable 3.5 mph - N/A   Overcast
3:52 AM 73.4 °F - 71.6 °F 94% 29.84 in 10.0 mi Variable 3.5 mph - N/A   Overcast
3:54 AM 73.0 °F - 71.1 °F 93% 29.84 in 10.0 mi South 4.6 mph - N/A   Overcast
4:54 AM 73.0 °F - 71.1 °F 93% 29.83 in 10.0 mi Variable 3.5 mph - N/A   Overcast
5:02 AM 73.4 °F - 71.6 °F 94% 29.83 in 10.0 mi Variable 3.5 mph - N/A   Overcast
5:54 AM 73.0 °F - 71.1 °F 93% 29.82 in 10.0 mi SE 4.6 mph - N/A   Overcast
6:05 AM 73.4 °F - 71.6 °F 94% 29.82 in 10.0 mi SSE 3.5 mph - N/A   Overcast
6:19 AM 73.4 °F - 71.6 °F 94% 29.82 in 10.0 mi SE 6.9 mph - N/A   Overcast
6:54 AM 73.0 °F - 71.1 °F 93% 29.80 in 10.0 mi SE 6.9 mph - N/A   Overcast
7:54 AM 73.9 °F - 72.0 °F 93% 29.80 in 10.0 mi SSE 6.9 mph - N/A   Overcast
8:04 AM 75.2 °F - 71.6 °F 89% 29.79 in 10.0 mi SSE 5.8 mph - N/A   Mostly Cloudy
8:24 AM 75.2 °F - 71.6 °F 89% 29.79 in 10.0 mi SSW 8.1 mph - N/A   Overcast
8:54 AM 75.9 °F - 72.0 °F 87% 29.77 in 10.0 mi SSW 5.8 mph - N/A   Overcast
9:32 AM 77.0 °F - 73.4 °F 89% 29.76 in 10.0 mi South 8.1 mph - N/A   Overcast
9:54 AM 78.1 °F - 73.0 °F 84% 29.75 in 10.0 mi South 8.1 mph - N/A   Overcast
10:54 AM 81.0 °F 85.8 °F 73.0 °F 77% 29.73 in 10.0 mi SSW 11.5 mph 19.6 mph N/A   Mostly Cloudy
11:54 AM 82.0 °F 86.7 °F 72.0 °F 71% 29.70 in 10.0 mi SSW 10.4 mph 18.4 mph N/A   Mostly Cloudy
12:23 PM 82.4 °F 87.2 °F 71.6 °F 70% 29.69 in 10.0 mi SSW 11.5 mph 19.6 mph N/A   Mostly Cloudy
12:43 PM 84.2 °F 89.6 °F 71.6 °F 66% 29.69 in 10.0 mi SSW 12.7 mph 24.2 mph N/A   Mostly Cloudy
12:54 PM 84.0 °F 89.0 °F 71.1 °F 65% 29.68 in 10.0 mi South 12.7 mph 19.6 mph N/A   Scattered Clouds
1:54 PM 84.9 °F 89.4 °F 70.0 °F 61% 29.65 in 10.0 mi SSW 13.8 mph 24.2 mph N/A   Partly Cloudy
2:54 PM 84.9 °F 88.2 °F 68.0 °F 57% 29.62 in 10.0 mi SSW 13.8 mph 26.5 mph N/A   Mostly Cloudy
3:54 PM 86.0 °F 88.8 °F 66.9 °F 53% 29.61 in 10.0 mi SW 16.1 mph 25.3 mph N/A   Scattered Clouds
4:54 PM 73.0 °F - 66.0 °F 79% 29.64 in 10.0 mi WNW 15.0 mph 25.3 mph 0.00 in Rain Light Rain
5:54 PM 70.0 °F - 66.9 °F 90% 29.67 in 9.0 mi NW 6.9 mph - 0.01 in Rain Light Rain
6:54 PM 68.0 °F - 66.0 °F 93% 29.70 in 8.0 mi West 8.1 mph - 0.07 in Rain Rain
7:54 PM 66.9 °F - 64.0 °F 90% 29.74 in 9.0 mi West 6.9 mph - 0.08 in Rain Light Rain
8:54 PM 66.9 °F - 64.9 °F 93% 29.76 in 10.0 mi West 3.5 mph - 0.02 in Rain Light Rain
9:54 PM 66.9 °F - 64.0 °F 90% 29.79 in 10.0 mi WNW 8.1 mph - 0.01 in Rain Light Rain
10:54 PM 64.9 °F - 63.0 °F 93% 29.80 in 10.0 mi West 3.5 mph - 0.00 in Rain Light Rain
11:54 PM 66.0 °F - 63.0 °F 90% 29.81 in 10.0 mi Calm Calm - 0.00 in   Mostly Cloudy